Regional Weather Roundup
Issued by NWS Sterling, VA

Home | Current Version | Previous Version | Text Only | Print | Product List | Glossary On
Versions: 1 2 3 4 5 6 7 8 9 10 11 12 13 14 15 16 17 18 19 20 21 22 23 24 25 26 27 28 29 30 31 32 33 34 35 36 37 38 39 40 41 42 43 44 45 46 47 48 49 50
000
ASUS41 KLWX 051210
RWRLWX

REGIONAL WEATHER ROUNDUP
NATIONAL WEATHER SERVICE BALTIMORE MD/WASHINGTON DC
700 AM EST THU MAR 05 2015

Note: "FAIR" indicates few or no clouds below 12,000 feet
with no significant weather and/or obstructions to visibility.
 TC=TEMPERATURE CELSIUS

 * =Non NWS site. Station does not report precipitation (e.g. rain,
    snow, etc.), thunder, or fog.

DCZ001-MDZ009-015-VAZ040>042-051-053>054-051300-
WASHINGTON METRO

CITY           SKY/WX    TMP DP  RH WIND       PRES   REMARKS
WASHINGTON NAT LGT RAIN  38  32  79 N14       30.06R FOG
DULLES         LGT SNOW  34  30  86 N14       30.06R FOG     WCI  24
ANDREWS AFB    LGT RAIN  35  34  96 N9        30.04S WCI  28
FT BELVOIR     DRIZZLE   36  33  90 N7        30.07S
QUANTICO       LGT RAIN  36  33  89 NE10      30.07S FOG     WCI  28
COLLEGE PARK*  CLOUDY    36  34  93 N9        30.06S WCI  29
LEESBURG*      LGT SNOW  34  34 100 N16G24    30.08S WCI  23
MANASSAS*      CLOUDY    34  34 100 N12       30.07S WCI  25
GAITHERSBURG*  CLOUDY    34  30  86 N5        30.08S VSB 1

$$

MDZ006>007-011-014-051300-
BALTIMORE METRO

CITY           SKY/WX    TMP DP  RH WIND       PRES   REMARKS
BWI AIRPORT    LGTSLEET  34  32  92 N6        30.05R FOG
MD SCIENCE CTR   N/A     35  29  78 MISG      30.05S
MARTIN STATE   RAIN      36  32  87 NW9G16    30.08R WCI  29
ANNAPOLIS      MIX PCPN  35  30  82 N12       30.06R WCI  27
FORT MEADE*    CLOUDY    34  32  93 N5        30.08F

$$

MDZ012-015-019>023-051300-
MARYLAND EASTERN SHORE

CITY           SKY/WX    TMP DP  RH WIND       PRES   REMARKS
OCEAN CITY     LGT RAIN  37  36  96 N9        30.03R FOG
SALISBURY      LGT RAIN  39  35  86 N9        30.03R FOG
BAY BRIDGE AP* LGT RAIN  34  32  93 N8        30.05S WCI  27
CAMBRIDGE*     CLOUDY    36  34  93 N12G18    30.04S WCI  27
EASTON*        RAIN      36  36 100 N10       30.08S FOG     WCI  28

$$

MDZ017>025-051300-
SOUTHERN MARYLAND

CITY           SKY/WX    TMP DP  RH WIND       PRES   REMARKS
PATUXENT RIVER LGT RAIN  36  33  89 N15       30.04R FOG     WCI  27
ST INIGOES     LGT RAIN  37  32  82 N9G22     30.03R
LEONARDTOWN*   CLOUDY    34  32  93 NE3G17    30.05F

$$

MDZ003>005-051300-
NORTH CENTRAL MARYLAND

CITY           SKY/WX    TMP DP  RH WIND       PRES   REMARKS
FREDERICK*     LGT SNOW  34  30  86 N5        30.12R VSB 3/4
HAGERSTOWN APT LGT SNOW  29  23  78 NW9       30.08R WCI  20
WESTMINSTER*   LGT SNOW  28  28 100 N5        30.06S VSB 3/4

$$

MDZ501>502-051300-
WESTERN MARYLAND

CITY           SKY/WX    TMP DP  RH WIND       PRES   REMARKS
OAKLAND*       FOG       16 N/A N/A NW8       29.99R VSB 3/4 WCI   5
CUMBERLAND*    CLOUDY    30  19  64 NW9G16    30.15R WCI  22

$$

VAZ025>031-051300-
SHENANDOAH VALLEY

CITY           SKY/WX    TMP DP  RH WIND       PRES   REMARKS
WINCHESTER*    LGT SNOW  32  28  86 NW10G16   30.07R WCI  24
FRONT ROYAL*   CLOUDY    32  30  93 N6        30.06R
LURAY*         LGT SNOW  34  34 100 NE7       30.04R
NEW MARKET*    CLOUDY    32  30  94 NE6       30.06R
STAUNTON*      LGT RAIN  33  32  96 N12       30.04R WCI  24
WAYNESBORO*    CLOUDY    33  32  98 N6        29.99R

$$

WVZ021-048>050-054>055-051300-
EASTERN WEST VIRGINIA PANHANDLE

CITY           SKY/WX    TMP DP  RH WIND       PRES   REMARKS
MARTINSBURG    LGT SNOW  32  24  72 N16       30.09R WCI  21
PETERSBURG*    NOT AVBL

$$

VAZ036>039-050-051300-
CENTRAL FOOTHILLS

CITY           SKY/WX    TMP DP  RH WIND       PRES   REMARKS
CHARLOTTESVILL LGT RAIN  37  36  96 NE7       30.00R FOG
CULPEPER*      DRIZZLE   36  34  93 N8        30.05R
ORANGE*        DRIZZLE   36  34  93 N10G18    30.05R WCI  28
GORDONSVILLE*  CLOUDY    35  33  94 NE8G18    30.02R WCI  28
WARRENTON*     LGT RAIN  36  36 100 N12G17    30.05R WCI  27

$$

VAZ055>057-051300-
NORTH AND CENTRAL PIEDMONT

CITY           SKY/WX    TMP DP  RH WIND       PRES   REMARKS
FREDERICKSBRG* DRIZZLE   37  37 100 N12G21    30.05R
STAFFORD*      DRIZZLE   35  50 100 N8        30.10R WCI  28

$$

NCZ024-NYZ072-PAZ021-071-VAZ022-071-051300-
OTHER REGIONAL OBSERVATIONS

CITY           SKY/WX    TMP DP  RH WIND       PRES   REMARKS
NEW YORK CITY  LGT SNOW  31  29  92 NW6       30.06R VSB 3/4
PHILADELPHIA   LGT SNOW  33  31  92 N5        30.07R VSB 1
PITTSBURGH     LGT SNOW  16  12  84 NW12      30.19R VSB 3/4 WCI   3
ROANOKE        RAIN      39  37  92 N8        30.01R FOG
RICHMOND       LGT RAIN  39  36  89 N13G22    30.03R FOG
RALEIGH        CLOUDY    63  58  83 W5        29.89R

$$

ANZ530>537-051300-
MARINE OBSERVATIONS

STATION/POSITION TIME  TEMP    WIND        PRES
                       AIR SEA DIR/SP/G
                 (UTC) (F)     (DEG/KT/KT) (MB)
THOMAS PT LIGHT  1200   35 32  360/ 15/ 17 1018.4R
BALT KEY BRIDGE  1100   36     340/ 11/ 13 1017.5R
COVE POINT       1100   34      20/ 13/ 15 1016.5R
LEWISETTA        1100   38 34   10/  6/ 10 1016.3R
SOLOMONS ISLAND  1100      33                N/A

$$




USA.gov is the U.S. government's official web portal to all federal, state and local government web resources and services.